Вернуться в каталог

STARLINK-32482

АктивенСвязьVLEO
NORAD 62141·PAYLOAD·🇺🇸 United States

Запущен Nov 30, 2024 с Cape Canaveral Space Force Station

Loading…

Ближайшие Пролёты (ближайшие 24 часа)

TLE

СвежийSource: CelesTrak SupGP

Эпоха: Sep 15, 2026, 02:32 UTC

1 62141C 24224C   26258.10604167 -.00004865  00000+0 -17622-3 0  2589
2 62141  43.0007 168.1935 0001322 270.4451 354.1403 15.27578910    10

Отслеживайте STARLINK-32482 в реальном времени с AllMySat

Download on the App Store